Location: Unspecified
(22.6800°N, 112.2000°E)
Time: 15:48:22
(UTC+08:00)

S-56A Canister/Altair - Pass Details

Date: 31 July 2021
Orbit: 632 x 2500 km, 38.9° (Epoch: 24 September)

Event Time Altitude Azimuth Distance (km) Brightness Sun altitude
Rises 11:35:13 0° 188° (S) 4,409 11.4 74.7°
Reaches altitude 10° 11:38:47 10° 173° (S) 3,735 11.3 75.5°
Maximum altitude 11:46:04 22° 127° (SE) 3,391 11.4 77.1°
Drops below altitude 10° 11:55:08 10° 83° (E) 4,810 11.9 79.1°
Sets 12:00:31 0° 70° (ENE) 6,026 12.2 80.2°
